period_start,C,m1,H,J0,J1,J2,J3,J4,J5,JA,JB,JC,JD,JJ,JK,JN,#
2015-09-07 05:16:51,0.00,0.00,0.00,20.66,19.37,18.92,13.14,43.19,1014.58,1936.93,3257.83,3101.89,3389.47,555.87,556.18,0.01,0000 0000 0000 0000 000000
2015-09-07 05:21:52,0.01,0.00,0.00,20.87,19.45,20.72,14.26,46.51,1015.05,2073.06,3480.56,3316.42,3623.69,599.94,599.36,0.06,0000 0000 0000 0000 000000
2015-09-07 05:26:53,0.03,0.01,0.00,21.02,19.54,21.65,14.28,46.89,1015.15,2072.64,3476.82,3313.71,3620.20,600.20,599.25,0.11,0000 0000 0000 0000 000000
2015-09-07 05:31:54,0.05,0.01,0.00,21.19,19.67,22.18,14.29,47.42,1015.26,2072.03,3473.70,3311.40,3617.29,599.73,598.60,0.16,0000 0000 0000 0000 000000
2015-09-07 05:36:55,0.08,0.02,0.00,21.34,19.82,22.56,14.27,47.52,1015.56,2071.74,3470.74,3309.11,3614.47,599.91,598.65,0.21,0000 0000 0000 0000 000000
2015-09-07 05:41:57,0.07,0.02,0.00,21.51,20.00,22.94,14.34,47.79,1015.64,2071.03,3467.89,3306.84,3611.70,600.11,598.58,0.26,0000 0000 0000 0000 000000
2015-09-07 05:46:58,0.08,0.03,0.00,21.68,20.21,23.38,14.34,47.60,1015.67,2070.35,3464.84,3304.36,3608.74,600.36,598.48,0.31,0000 0000 0000 0000 000000
2015-09-07 05:52:00,0.08,0.03,0.00,21.87,20.44,23.82,14.22,47.52,1015.79,2069.68,3461.89,3301.89,3605.81,599.82,597.59,0.36,0000 0000 0000 0000 000000
2015-09-07 05:57:01,0.09,0.04,0.00,22.08,20.69,24.23,14.28,47.68,1016.04,2068.79,3458.73,3299.20,3602.59,599.96,597.63,0.41,0000 0000 0000 0000 000000
2015-09-07 06:02:02,0.08,0.04,0.00,22.27,20.97,24.64,14.23,47.61,1016.13,2067.94,3455.86,3296.64,3599.57,599.61,596.86,0.46,0000 0000 0000 0000 000000
2015-09-07 06:07:04,0.07,0.04,0.00,22.52,21.25,25.08,14.26,47.77,1016.14,2066.97,3452.76,3293.90,3596.47,599.89,596.63,0.51,0000 0000 0000 0000 000000
2015-09-07 06:12:05,0.05,0.05,0.00,22.82,21.56,25.49,14.27,47.71,1016.22,2065.87,3449.72,3291.11,3593.23,600.03,596.25,0.56,0000 0000 0000 0000 000000
2015-09-07 06:17:06,0.05,0.05,0.00,23.07,21.86,25.88,14.33,47.83,1016.56,2064.74,3446.62,3288.29,3589.93,600.16,595.95,0.61,0000 0000 0000 0000 000000
2015-09-07 06:22:08,0.05,0.05,0.00,23.33,22.18,26.28,14.28,47.69,1016.62,2063.58,3443.45,3285.47,3586.61,600.19,595.56,0.66,0000 0000 0000 0000 000000
2015-09-07 06:27:09,0.07,0.06,0.00,23.77,22.50,26.69,14.30,47.72,1016.63,2062.40,3440.06,3282.44,3583.23,599.86,594.41,0.71,0000 0000 0000 0000 000000
2015-09-07 06:32:10,0.07,0.06,0.00,24.11,22.84,27.09,14.30,47.58,1016.68,2061.14,3436.73,3279.42,3579.86,600.23,594.10,0.76,0000 0000 0000 0000 000000
2015-09-07 06:37:12,0.05,0.06,0.00,24.32,23.17,27.44,14.29,47.25,1016.93,2059.82,3433.35,3276.32,3576.28,600.20,593.76,0.81,0000 0000 0000 0000 000000
2015-09-07 06:42:13,0.06,0.07,0.00,24.48,23.49,27.75,14.25,47.23,1017.07,2058.59,3429.97,3273.27,3572.82,600.04,593.34,0.86,0000 0000 0000 0000 000000
2015-09-07 06:47:15,0.08,0.07,0.00,24.62,23.81,28.05,14.28,47.31,1017.10,2057.25,3426.45,3270.14,3569.21,600.15,593.09,0.91,0000 0000 0000 0000 000000
2015-09-07 06:52:16,0.04,0.07,0.00,24.73,24.12,28.33,14.30,47.27,1017.10,2055.95,3423.28,3267.27,3565.89,600.38,593.19,0.96,0000 0000 0000 0000 000000
2015-09-07 06:57:17,0.04,0.07,0.00,24.84,24.42,28.58,14.23,47.26,1017.10,2054.75,3420.24,3264.50,3562.68,599.87,592.50,1.01,0000 0000 0000 0000 000000
2015-09-07 07:02:19,0.04,0.08,0.00,24.94,24.71,28.80,14.25,47.33,1017.11,2053.47,3417.19,3261.88,3559.44,599.82,592.26,1.06,0000 0000 0000 0000 000000
2015-09-07 07:07:20,0.06,0.08,0.00,25.03,24.98,28.99,14.25,47.33,1017.11,2052.23,3414.04,3259.06,3556.20,600.19,592.44,1.11,0000 0000 0000 0000 000000
2015-09-07 07:12:22,0.05,0.08,0.00,25.11,25.24,29.17,14.40,47.46,1017.11,2051.10,3411.03,3256.42,3553.21,600.26,592.28,1.16,0000 0000 0000 0000 000000
2015-09-07 07:17:23,0.05,0.08,0.00,25.18,25.49,29.33,14.24,47.69,1017.12,2049.99,3408.08,3253.81,3550.13,600.23,592.20,1.21,0000 0000 0000 0000 000000
2015-09-07 07:22:24,0.05,0.09,0.00,25.26,25.73,29.37,14.31,47.40,1017.13,2048.92,3405.14,3251.19,3547.14,600.21,592.11,1.26,0000 0000 0000 0000 000000
2015-09-07 07:27:25,0.03,0.09,0.00,25.33,25.96,29.31,14.15,47.08,1017.13,2047.80,3402.34,3248.72,3544.31,599.65,591.14,1.31,0000 0000 0000 0000 000000
2015-09-07 07:32:26,0.10,0.09,0.00,25.39,26.18,29.37,14.18,47.12,1017.18,2047.01,3399.41,3246.22,3541.41,599.79,591.42,1.36,0000 0000 0000 0000 000000
2015-09-07 07:37:27,0.05,0.10,0.00,25.45,26.38,29.48,14.29,47.36,1017.43,2046.19,3396.70,3243.86,3538.67,599.99,591.60,1.41,0000 0000 0000 0000 000000
2015-09-07 07:42:28,0.04,0.10,0.00,25.51,26.58,29.59,14.24,47.25,1017.54,2045.30,3394.17,3241.60,3536.11,600.15,591.82,1.46,0000 0000 0000 0000 000000
2015-09-07 07:47:30,0.05,0.10,0.00,25.57,26.76,29.74,14.22,47.28,1017.58,2044.39,3391.54,3239.26,3533.34,599.97,591.43,1.51,0000 0000 0000 0000 000000
2015-09-07 07:52:31,0.06,0.11,0.00,25.63,26.94,29.89,14.28,47.30,1017.59,2043.63,3388.99,3237.04,3530.81,600.02,591.39,1.56,0000 0000 0000 0000 000000
2015-09-07 07:57:32,0.08,0.11,0.00,25.69,27.11,30.03,14.21,47.14,1017.59,2042.87,3386.41,3234.82,3528.25,599.77,590.93,1.61,0000 0000 0000 0000 000000
2015-09-07 08:02:34,0.05,0.11,0.00,25.77,27.27,30.14,14.23,47.20,1017.59,2042.04,3383.81,3232.59,3525.70,600.03,591.06,1.66,0000 0000 0000 0000 000000
2015-09-07 08:07:35,0.05,0.12,0.00,25.83,27.42,30.25,14.25,47.52,1017.59,2041.20,3381.22,3230.36,3523.16,599.84,590.67,1.71,0000 0000 0000 0000 000000
2015-09-07 08:12:37,0.08,0.12,0.00,25.89,27.57,30.36,14.23,47.41,1017.59,2040.68,3378.51,3228.15,3520.54,599.86,590.78,1.76,0000 0000 0000 0000 000000
2015-09-07 08:17:38,0.10,0.12,0.00,25.96,27.71,30.45,14.28,47.10,1017.60,2040.00,3375.78,3225.79,3518.04,599.44,590.16,1.81,0000 0000 0000 0000 000000
2015-09-07 08:22:40,0.04,0.13,0.00,26.03,27.84,30.56,14.21,46.75,1017.68,2039.23,3373.10,3223.53,3515.44,600.27,590.89,1.87,0000 0000 0000 0000 000000
2015-09-07 08:27:41,0.08,0.13,0.00,26.09,27.97,30.65,14.23,46.93,1017.94,2038.65,3370.33,3221.22,3512.83,599.73,590.39,1.92,0000 0000 0000 0000 000000
2015-09-07 08:32:42,0.09,0.13,0.00,26.14,28.10,30.74,14.28,46.92,1018.05,2038.01,3367.71,3219.00,3510.23,600.20,590.77,1.97,0000 0000 0000 0000 000000
2015-09-07 08:37:43,0.05,0.14,0.00,26.20,28.21,30.80,14.23,47.06,1018.08,2037.34,3365.06,3216.75,3507.53,600.15,590.65,2.02,0000 0000 0000 0000 000000
2015-09-07 08:42:45,0.13,0.14,0.00,26.25,28.33,30.86,14.21,47.00,1018.08,2036.97,3362.30,3214.33,3504.75,600.02,590.42,2.07,0000 0000 0000 0000 000000
2015-09-07 08:47:46,0.06,0.15,0.00,26.28,28.44,30.94,14.23,46.99,1018.08,2036.18,3359.49,3211.83,3501.91,599.66,589.94,2.12,0000 0000 0000 0000 000000
2015-09-07 08:52:47,0.12,0.15,0.00,26.32,28.55,31.03,14.22,46.97,1018.08,2035.93,3357.00,3209.49,3499.17,599.87,590.20,2.17,0000 0000 0000 0000 000000
2015-09-07 08:57:48,0.07,0.16,0.00,26.36,28.65,31.12,14.22,46.91,1018.09,2035.14,3354.36,3207.09,3496.42,599.94,590.14,2.22,0000 0000 0000 0000 000000
2015-09-07 09:02:49,0.14,0.16,0.00,26.39,28.74,31.19,14.24,46.84,1018.09,2034.90,3351.56,3204.45,3493.33,599.64,589.73,2.27,0000 0000 0000 0000 000000
2015-09-07 09:07:51,0.07,0.17,0.00,26.43,28.84,31.27,14.16,46.58,1018.09,2034.11,3348.67,3201.73,3490.15,599.67,589.84,2.32,0000 0000 0000 0000 000000
2015-09-07 09:12:52,0.15,0.18,0.00,26.47,28.93,31.34,14.20,46.61,1018.12,2033.94,3345.83,3199.12,3486.99,599.95,589.95,2.37,0000 0000 0000 0000 000000
2015-09-07 09:17:53,0.08,0.18,0.00,26.51,29.01,31.40,14.25,46.70,1018.23,2033.20,3342.93,3196.37,3483.70,599.82,589.81,2.42,0000 0000 0000 0000 000000
2015-09-07 09:22:54,0.16,0.19,0.00,26.54,29.09,31.47,14.12,46.65,1018.27,2033.00,3339.98,3193.60,3480.50,599.99,590.00,2.47,0000 0000 0000 0000 000000
2015-09-07 09:27:56,0.09,0.19,0.00,26.59,29.17,31.54,14.34,46.92,1018.41,2032.46,3336.99,3190.85,3477.23,600.21,590.22,2.52,0000 0000 0000 0000 000000
2015-09-07 09:32:57,0.15,0.20,0.00,26.63,29.24,31.61,14.26,46.71,1018.55,2032.01,3333.99,3188.04,3474.00,599.69,589.76,2.57,0000 0000 0000 0000 000000
2015-09-07 09:37:58,0.15,0.21,0.00,26.68,29.31,31.67,14.26,46.83,1018.57,2031.96,3331.18,3185.36,3470.82,599.97,589.86,2.62,0000 0000 0000 0000 000000
2015-09-07 09:43:00,0.08,0.21,0.00,26.72,29.38,31.74,14.31,46.87,1018.57,2031.30,3328.26,3182.53,3467.57,600.19,589.97,2.67,0000 0000 0000 0000 000000
2015-09-07 09:48:01,0.15,0.22,0.00,26.76,29.45,31.81,14.27,46.72,1018.58,2031.00,3325.41,3179.73,3464.32,600.23,589.70,2.72,0000 0000 0000 0000 000000
2015-09-07 09:53:02,0.15,0.23,0.00,26.80,29.51,31.87,14.32,46.75,1018.58,2030.92,3322.59,3177.02,3461.14,599.98,589.52,2.77,0000 0000 0000 0000 000000
2015-09-07 09:58:03,0.09,0.23,0.00,26.84,29.58,31.92,14.25,46.69,1018.61,2030.20,3319.67,3174.25,3457.86,600.09,589.55,2.82,0000 0000 0000 0000 000000
2015-09-07 10:03:05,0.16,0.24,0.00,26.87,29.64,31.98,14.29,46.68,1018.79,2030.00,3316.66,3171.45,3454.65,599.96,589.58,2.87,0000 0000 0000 0000 000000
2015-09-07 10:08:06,0.14,0.25,0.00,26.89,29.70,32.04,14.32,46.60,1018.97,2029.88,3313.88,3168.82,3451.58,600.08,589.77,2.92,0000 0000 0000 0000 000000
2015-09-07 10:13:07,0.09,0.25,0.00,26.92,29.76,32.10,14.24,46.52,1019.06,2029.17,3311.03,3166.08,3448.44,600.23,589.86,2.97,0000 0000 0000 0000 000000
2015-09-07 10:18:09,0.14,0.26,0.00,26.95,29.81,32.14,14.30,46.77,1019.06,2029.00,3308.30,3163.47,3445.44,600.28,589.88,3.02,0000 0000 0000 0000 000000
2015-09-07 10:23:10,0.13,0.27,0.00,26.97,29.86,32.20,14.29,46.57,1019.06,2028.86,3305.66,3161.12,3442.63,600.33,589.83,3.07,0000 0000 0000 0000 000000
2015-09-07 10:28:11,0.07,0.27,0.00,27.00,29.92,32.25,14.30,46.69,1019.07,2028.23,3303.24,3158.93,3440.08,600.01,589.62,3.12,0000 0000 0000 0000 000000
2015-09-07 10:33:12,0.11,0.28,0.00,27.02,29.97,32.30,14.33,46.67,1019.07,2028.01,3301.07,3156.82,3437.61,600.09,589.67,3.17,0000 0000 0000 0000 000000
2015-09-07 10:38:14,0.11,0.28,0.00,27.04,30.02,32.36,14.20,46.67,1019.09,2027.99,3298.89,3154.85,3435.25,599.82,589.07,3.22,0000 0000 0000 0000 000000
2015-09-07 10:43:15,0.10,0.29,0.00,27.06,30.07,32.42,14.32,46.63,1019.14,2027.84,3296.68,3152.83,3432.93,600.28,589.60,3.27,0000 0000 0000 0000 000000
2015-09-07 10:48:16,0.04,0.29,0.00,27.08,30.11,32.47,14.27,46.56,1019.15,2027.27,3294.62,3151.07,3430.78,600.08,589.41,3.32,0000 0000 0000 0000 000000
2015-09-07 10:53:17,0.10,0.30,0.00,27.11,30.16,32.50,14.26,46.63,1019.18,2027.01,3292.55,3149.16,3428.57,600.01,589.39,3.37,0000 0000 0000 0000 000000
2015-09-07 10:58:18,0.11,0.30,0.00,27.14,30.20,32.57,14.22,46.62,1019.33,2026.99,3290.44,3147.23,3426.28,600.08,589.48,3.42,0000 0000 0000 0000 000000
2015-09-07 11:03:20,0.06,0.31,0.00,27.15,30.25,32.60,14.21,46.75,1019.33,2026.70,3288.52,3145.47,3424.19,599.55,588.93,3.47,0000 0000 0000 0000 000000
2015-09-07 11:08:21,0.06,0.31,0.00,27.16,30.29,32.62,14.27,46.91,1019.44,2026.13,3286.67,3143.76,3422.17,600.00,589.42,3.52,0000 0000 0000 0000 000000
2015-09-07 11:13:22,0.08,0.31,0.00,27.18,30.33,32.67,14.20,46.60,1019.49,2026.01,3284.87,3142.14,3420.22,599.88,589.29,3.57,0000 0000 0000 0000 000000
2015-09-07 11:18:23,0.08,0.32,0.00,27.20,30.37,32.72,14.23,46.52,1019.53,2025.99,3283.29,3140.69,3418.54,600.57,589.97,3.62,0000 0000 0000 0000 000000
2015-09-07 11:23:24,0.08,0.32,0.00,27.22,30.41,32.74,14.26,46.62,1019.53,2025.96,3281.70,3139.33,3416.86,600.15,589.56,3.67,0000 0000 0000 0000 000000
2015-09-07 11:28:26,0.03,0.32,0.00,27.24,30.45,32.80,14.25,46.67,1019.53,2025.58,3280.11,3137.85,3415.22,600.01,589.35,3.72,0000 0000 0000 0000 000000
2015-09-07 11:33:27,0.05,0.33,0.00,27.26,30.48,32.86,14.32,46.67,1019.49,2025.11,3278.61,3136.55,3413.58,600.31,589.42,3.77,0000 0000 0000 0000 000000
2015-09-07 11:38:28,0.08,0.33,0.00,27.27,30.52,32.89,14.21,46.83,1019.48,2025.00,3276.99,3135.20,3411.85,599.77,588.98,3.82,0000 0000 0000 0000 000000
2015-09-07 11:43:29,0.08,0.33,0.00,27.28,30.55,32.91,14.22,46.51,1019.51,2024.99,3275.48,3133.87,3410.27,599.88,589.04,3.87,0000 0000 0000 0000 000000
2015-09-07 11:48:30,0.07,0.34,0.00,27.30,30.59,32.95,14.26,46.74,1019.50,2024.93,3274.00,3132.64,3408.73,599.92,589.02,3.92,0000 0000 0000 0000 000000
2015-09-07 11:53:31,0.06,0.34,0.00,27.30,30.62,32.98,14.20,46.67,1019.52,2024.76,3272.61,3131.46,3407.38,599.49,588.62,3.97,0000 0000 0000 0000 000000
2015-09-07 11:58:33,0.01,0.34,0.00,27.31,30.65,33.03,14.24,46.60,1019.51,2024.30,3271.32,3130.35,3405.98,599.49,588.65,4.02,0000 0000 0000 0000 000000
2015-09-07 12:03:34,0.06,0.35,0.00,27.32,30.68,33.06,14.18,46.85,1019.55,2024.03,3269.92,3129.11,3404.57,599.73,588.88,4.07,0000 0000 0000 0000 000000
2015-09-07 12:08:35,0.07,0.35,0.00,27.34,30.71,33.09,14.33,46.98,1019.55,2024.00,3268.54,3127.91,3403.17,600.06,589.08,4.12,0000 0000 0000 0000 000000
2015-09-07 12:13:37,0.07,0.35,0.00,27.36,30.73,33.13,14.24,47.08,1019.56,2024.00,3267.37,3126.81,3401.80,600.28,589.48,4.17,0000 0000 0000 0000 000000
2015-09-07 12:18:38,0.07,0.36,0.00,27.37,30.76,33.15,14.21,46.99,1019.56,2024.00,3266.09,3125.67,3400.51,599.57,588.65,4.22,0000 0000 0000 0000 000000
2015-09-07 12:23:39,0.05,0.36,0.00,27.39,30.78,33.18,14.20,46.66,1019.55,2023.96,3265.02,3124.63,3399.27,599.28,588.37,4.28,0000 0000 0000 0000 000000
2015-09-07 12:28:41,0.02,0.36,0.00,27.40,30.81,33.20,14.31,47.07,1019.54,2023.71,3263.94,3123.66,3397.99,600.18,589.18,4.33,0000 0000 0000 0000 000000
2015-09-07 12:33:42,0.01,0.36,0.00,27.41,30.83,33.24,14.37,47.23,1019.55,2023.19,3263.00,3122.79,3396.92,599.98,588.96,4.38,0000 0000 0000 0000 000000
2015-09-07 12:38:44,0.04,0.36,0.00,27.42,30.86,33.25,14.18,46.99,1019.55,2023.03,3262.02,3121.91,3395.84,599.86,588.82,4.43,0000 0000 0000 0000 000000
2015-09-07 12:43:45,0.05,0.37,0.00,27.42,30.88,33.27,14.24,47.22,1019.55,2023.01,3261.03,3121.04,3394.87,600.11,589.07,4.48,0000 0000 0000 0000 000000
2015-09-07 12:48:46,0.06,0.37,0.00,27.44,30.90,33.32,14.28,47.21,1019.55,2023.00,3260.05,3120.15,3393.81,599.71,588.60,4.53,0000 0000 0000 0000 000000
2015-09-07 12:53:48,0.06,0.37,0.00,27.45,30.92,33.33,14.23,47.13,1019.55,2023.00,3258.89,3119.22,3392.75,599.95,588.88,4.58,0000 0000 0000 0000 000000
2015-09-07 12:58:49,0.04,0.37,0.00,27.45,30.95,33.34,14.28,47.20,1019.55,2022.97,3257.93,3118.35,3391.75,599.75,588.60,4.63,0000 0000 0000 0000 000000
2015-09-07 13:03:50,0.05,0.38,0.00,27.47,30.96,33.38,14.27,47.16,1019.55,2022.90,3256.82,3117.37,3390.77,600.10,588.87,4.68,0000 0000 0000 0000 000000
2015-09-07 13:08:52,0.02,0.38,0.00,27.47,30.99,33.43,14.31,47.20,1019.56,2022.59,3255.77,3116.54,3389.69,600.02,588.80,4.73,0000 0000 0000 0000 000000
2015-09-07 13:13:53,0.00,0.38,0.00,27.49,31.00,33.42,14.24,47.23,1019.56,2022.30,3254.84,3115.79,3388.75,599.89,588.62,4.78,0000 0000 0000 0000 000000
2015-09-07 13:18:54,0.03,0.38,0.00,27.50,31.02,33.46,14.25,46.88,1019.61,2022.17,3254.00,3115.04,3387.93,600.02,588.86,4.83,0000 0000 0000 0000 000000
2015-09-07 13:23:56,0.05,0.38,0.00,27.51,31.05,33.50,14.29,47.21,1019.69,2022.06,3253.10,3114.19,3387.01,600.07,588.92,4.88,0000 0000 0000 0000 000000
2015-09-07 13:28:57,0.04,0.39,0.00,27.52,31.06,33.51,14.30,47.07,1019.71,2022.02,3252.16,3113.50,3386.04,599.49,588.35,4.93,0000 0000 0000 0000 000000
2015-09-07 13:33:59,0.04,0.39,0.00,27.52,31.08,33.51,14.32,47.02,1019.83,2022.00,3251.25,3112.75,3385.07,600.27,589.18,4.98,0000 0000 0000 0000 000000
2015-09-07 13:39:00,0.04,0.39,0.00,27.53,31.10,33.55,14.27,46.90,1019.87,2022.00,3250.37,3111.91,3384.14,600.30,589.22,5.03,0000 0000 0000 0000 000000
2015-09-07 13:44:01,0.05,0.39,0.00,27.54,31.11,33.56,14.24,46.83,1019.99,2021.99,3249.39,3111.05,3383.16,600.00,588.99,5.08,0000 0000 0000 0000 000000
2015-09-07 13:49:03,0.05,0.40,0.00,27.55,31.12,33.59,14.34,47.04,1020.03,2021.98,3248.55,3110.32,3382.26,600.11,589.10,5.13,0000 0000 0000 0000 000000
2015-09-07 13:54:04,0.02,0.40,0.00,27.55,31.15,33.61,14.32,47.19,1020.04,2021.92,3247.80,3109.77,3381.49,600.28,589.38,5.18,0000 0000 0000 0000 000000
2015-09-07 13:59:05,0.01,0.40,0.00,27.57,31.15,33.64,14.33,47.15,1020.05,2021.76,3246.94,3109.02,3380.70,600.13,589.03,5.23,0000 0000 0000 0000 000000
2015-09-07 14:04:07,0.03,0.40,0.00,27.57,31.17,33.62,14.26,47.01,1020.05,2021.48,3246.09,3108.29,3379.98,599.81,588.82,5.28,0000 0000 0000 0000 000000
2015-09-07 14:09:08,0.00,0.40,0.00,27.58,31.19,33.66,14.28,46.98,1020.05,2021.27,3245.37,3107.83,3379.16,600.32,589.25,5.33,0000 0000 0000 0000 000000
2015-09-07 14:14:09,0.03,0.40,0.00,27.57,31.20,33.71,14.23,47.05,1020.06,2021.08,3244.65,3107.06,3378.47,599.77,588.73,5.38,0000 0000 0000 0000 000000
2015-09-07 14:19:11,0.01,0.40,0.00,27.58,31.21,33.73,14.22,46.67,1020.05,2021.08,3243.99,3106.79,3377.94,600.13,589.07,5.43,0000 0000 0000 0000 000000
2015-09-07 14:24:12,0.04,0.41,0.00,27.57,31.22,33.75,14.28,46.88,1020.07,2021.03,3243.18,3106.04,3377.11,600.07,588.87,5.48,0000 0000 0000 0000 000000
2015-09-07 14:29:13,0.04,0.41,0.00,27.57,31.23,33.78,14.19,46.52,1020.05,2021.01,3242.56,3105.49,3376.48,599.26,588.27,5.53,0000 0000 0000 0000 000000
2015-09-07 14:34:14,0.01,0.41,0.00,27.57,31.25,33.79,14.21,46.80,1020.06,2021.00,3241.90,3105.01,3375.94,599.50,588.45,5.58,0000 0000 0000 0000 000000
2015-09-07 14:39:15,0.05,0.41,0.00,27.58,31.25,33.82,14.27,46.97,1020.06,2021.00,3241.07,3104.33,3375.11,600.20,589.02,5.63,0000 0000 0000 0000 000000
2015-09-07 14:44:16,0.02,0.41,0.00,27.58,31.27,33.85,14.35,46.87,1020.13,2021.00,3240.65,3103.98,3374.55,600.48,589.28,5.68,0000 0000 0000 0000 000000
2015-09-07 14:49:17,0.03,0.41,0.00,27.58,31.27,33.87,14.28,46.99,1020.22,2021.00,3239.99,3103.41,3373.99,599.94,588.99,5.73,0000 0000 0000 0000 000000
2015-09-07 14:54:19,0.03,0.42,0.00,27.58,31.27,33.86,14.22,46.72,1020.35,2021.00,3239.28,3102.97,3373.35,599.79,588.87,5.78,0000 0000 0000 0000 000000
2015-09-07 14:59:20,0.04,0.42,0.00,27.59,31.29,33.84,14.27,46.71,1020.44,2021.00,3238.62,3102.21,3372.70,600.33,589.55,5.83,0000 0000 0000 0000 000000
2015-09-07 15:04:21,0.01,0.42,0.00,27.60,31.30,33.84,14.22,46.80,1020.47,2020.97,3238.01,3101.99,3372.02,599.71,589.02,5.88,0000 0000 0000 0000 000000
2015-09-07 15:09:22,0.04,0.42,0.00,27.60,31.30,33.87,14.29,46.68,1020.32,2020.97,3237.40,3101.34,3371.64,599.86,588.93,5.93,0000 0000 0000 0000 000000
2015-09-07 15:14:24,0.01,0.42,0.00,27.60,31.31,33.89,14.29,46.86,1020.38,2020.98,3236.88,3101.00,3371.02,600.04,589.06,5.98,0000 0000 0000 0000 000000
2015-09-07 15:19:25,0.03,0.42,0.00,27.60,31.32,33.93,14.34,47.01,1020.42,2020.94,3236.10,3100.66,3370.56,600.02,589.23,6.03,0000 0000 0000 0000 000000
2015-09-07 15:24:26,0.02,0.43,0.00,27.60,31.32,33.97,14.32,46.89,1020.50,2020.90,3235.74,3100.03,3370.01,599.92,589.25,6.08,0000 0000 0000 0000 000000
2015-09-07 15:29:28,0.03,0.43,0.00,27.60,31.33,33.96,14.28,46.76,1020.52,2020.90,3235.04,3099.88,3369.51,599.87,589.06,6.13,0000 0000 0000 0000 000000
2015-09-07 15:34:29,0.02,0.43,0.00,27.60,31.34,34.00,14.21,46.38,1020.52,2020.80,3234.48,3099.13,3369.01,599.70,588.88,6.18,0000 0000 0000 0000 000000
2015-09-07 15:39:30,0.01,0.43,0.00,27.60,31.35,34.02,14.25,46.50,1020.51,2020.71,3233.95,3098.95,3368.48,600.00,589.30,6.23,0000 0000 0000 0000 000000
2015-09-07 15:44:31,0.03,0.43,0.00,27.59,31.35,34.00,14.28,46.50,1020.52,2020.58,3233.21,3098.30,3368.00,599.69,588.91,6.28,0000 0000 0000 0000 000000
2015-09-07 15:49:33,0.02,0.43,0.00,27.57,31.35,34.01,14.23,46.54,1020.52,2020.74,3232.98,3098.01,3367.60,599.89,589.12,6.33,0000 0000 0000 0000 000000
2015-09-07 15:54:34,0.02,0.43,0.00,27.57,31.35,34.02,14.21,46.47,1020.52,2020.71,3232.25,3097.85,3367.02,599.77,589.04,6.38,0000 0000 0000 0000 000000
2015-09-07 15:59:35,0.02,0.43,0.00,27.57,31.35,34.02,14.28,46.64,1020.53,2020.52,3231.85,3097.10,3366.65,599.84,589.05,6.43,0000 0000 0000 0000 000000
2015-09-07 16:04:36,-0.01,0.43,0.00,27.59,31.35,34.06,14.26,46.52,1020.53,2020.31,3231.10,3096.97,3366.03,599.82,589.03,6.48,0000 0000 0000 0000 000000
2015-09-07 16:09:38,0.05,0.44,0.00,27.58,31.36,34.04,14.23,46.47,1020.54,2020.30,3230.60,3096.36,3365.69,599.92,589.17,6.53,0000 0000 0000 0000 000000
2015-09-07 16:14:39,0.01,0.44,0.00,27.57,31.37,34.04,14.19,46.55,1020.54,2020.29,3230.01,3096.01,3365.04,599.50,588.71,6.59,0000 0000 0000 0000 000000
2015-09-07 16:19:40,0.02,0.44,0.00,27.57,31.37,34.03,14.30,46.49,1020.59,2020.21,3229.35,3095.69,3364.61,600.13,589.33,6.64,0000 0000 0000 0000 000000
2015-09-07 16:24:42,0.02,0.44,0.00,27.57,31.37,34.03,14.25,46.67,1020.87,2020.14,3228.95,3095.03,3364.01,599.65,589.07,6.69,0000 0000 0000 0000 000000
2015-09-07 16:29:43,0.01,0.44,0.00,27.56,31.37,34.04,14.33,46.57,1020.84,2020.08,3228.19,3094.96,3363.59,600.12,589.56,6.74,0000 0000 0000 0000 000000
2015-09-07 16:34:44,0.03,0.44,0.00,27.55,31.37,34.05,14.30,46.88,1020.83,2020.07,3227.91,3094.26,3363.01,600.01,589.40,6.79,0000 0000 0000 0000 000000
2015-09-07 16:39:45,0.02,0.44,0.00,27.55,31.37,34.08,14.31,46.65,1020.79,2020.12,3227.12,3094.01,3362.74,600.13,589.52,6.84,0000 0000 0000 0000 000000
2015-09-07 16:44:47,0.02,0.44,0.00,27.55,31.37,34.08,14.30,46.69,1020.78,2020.13,3226.88,3093.73,3362.03,600.42,589.69,6.89,0000 0000 0000 0000 000000
2015-09-07 16:49:48,0.03,0.45,0.00,27.55,31.37,34.09,14.29,46.63,1020.97,2020.13,3226.09,3093.06,3361.88,599.84,589.38,6.94,0000 0000 0000 0000 000000
2015-09-07 16:54:49,0.03,0.45,0.00,27.54,31.37,34.09,14.35,46.77,1020.99,2020.25,3225.76,3092.99,3361.12,600.42,589.97,6.99,0000 0000 0000 0000 000000
2015-09-07 16:59:50,0.02,0.45,0.00,27.53,31.37,34.10,14.32,46.56,1020.97,2020.09,3225.08,3092.42,3360.72,600.00,589.48,7.04,0000 0000 0000 0000 000000
2015-09-07 17:04:52,0.02,0.45,0.00,27.52,31.37,34.07,14.25,46.61,1020.99,2020.05,3224.44,3092.00,3360.03,599.65,589.30,7.09,0000 0000 0000 0000 000000
2015-09-07 17:09:53,0.02,0.45,0.00,27.52,31.36,34.09,14.20,46.42,1021.01,2020.05,3224.00,3091.66,3359.72,599.67,589.36,7.14,0000 0000 0000 0000 000000
2015-09-07 17:14:54,0.03,0.45,0.00,27.52,31.35,34.07,14.28,46.55,1021.01,2020.05,3223.37,3091.05,3359.06,600.13,589.73,7.19,0000 0000 0000 0000 000000
2015-09-07 17:19:55,0.00,0.45,0.00,27.51,31.35,34.08,14.40,46.83,1021.01,2020.07,3223.00,3090.99,3358.93,600.27,589.86,7.24,0000 0000 0000 0000 000000
2015-09-07 17:24:56,0.03,0.45,0.00,27.50,31.35,34.07,14.30,46.58,1021.01,2020.08,3222.57,3090.61,3358.17,600.01,589.63,7.29,0000 0000 0000 0000 000000
2015-09-07 17:29:57,0.02,0.46,0.00,27.50,31.35,34.07,14.26,46.59,1021.02,2020.09,3221.99,3090.04,3357.85,599.99,589.66,7.34,0000 0000 0000 0000 000000
2015-09-07 17:34:59,0.03,0.46,0.00,27.50,31.35,34.06,14.36,46.75,1021.03,2020.12,3221.30,3089.93,3357.14,600.19,589.82,7.39,0000 0000 0000 0000 000000
2015-09-07 17:40:00,0.02,0.46,0.00,27.48,31.35,34.07,14.23,46.66,1021.09,2020.13,3220.92,3089.16,3356.92,599.74,589.50,7.44,0000 0000 0000 0000 000000
2015-09-07 17:45:02,0.03,0.46,0.00,27.48,31.35,34.07,14.27,46.60,1021.05,2020.19,3220.20,3088.99,3356.18,599.32,589.20,7.49,0000 0000 0000 0000 000000
2015-09-07 17:50:03,0.02,0.46,0.00,27.47,31.34,34.06,14.20,46.42,1021.03,2020.13,3219.69,3088.43,3355.85,600.07,589.79,7.54,0000 0000 0000 0000 000000
2015-09-07 17:55:04,0.01,0.46,0.00,27.47,31.33,34.07,14.30,46.62,1021.04,2020.12,3219.02,3088.01,3355.11,599.70,589.45,7.59,0000 0000 0000 0000 000000
2015-09-07 18:00:05,0.05,0.46,0.00,27.47,31.32,34.06,14.29,46.53,1021.03,2020.10,3218.27,3087.53,3354.70,600.24,590.02,7.64,0000 0000 0000 0000 000000
2015-09-07 18:05:06,0.02,0.47,0.00,27.45,31.32,34.05,14.34,46.71,1021.16,2020.20,3217.94,3087.02,3354.04,600.16,590.00,7.69,0000 0000 0000 0000 000000
2015-09-07 18:10:07,0.04,0.47,0.00,27.44,31.32,34.06,14.34,46.55,1021.20,2020.35,3217.15,3086.84,3353.69,600.48,590.33,7.74,0000 0000 0000 0000 000000
2015-09-07 18:15:08,0.03,0.47,0.00,27.43,31.30,34.07,14.33,46.64,1021.11,2020.32,3216.48,3086.06,3352.99,599.87,589.73,7.79,0000 0000 0000 0000 000000